Terug naar catalogus

STARLINK-5308

ActiefCommunicatieVLEO
NORAD 55300·PAYLOAD·🇺🇸 United States

Gelanceerd Jan 19, 2023 vanaf Vandenberg Space Force Base

Loading…

Volgende Passages (komende 24 uur)

TLE

VersSource: CelesTrak SupGP

Epoch: Sep 14, 2026, 21:08 UTC

1 55300C 23010AH  26257.88104167  .00069450  00000+0  58206-2 0  2579
2 55300  69.9993 267.2649 0003632 266.7549  46.1302 14.98291850    13

Volg STARLINK-5308 in realtime met AllMySat

Download on the App Store